Tracking 29892 objects as of 21-Nov-2024
HD Live streaming from Space Station
objects crossing your sky now

PEGASUS DEB

Track PEGASUS DEB now!
10-day predictions


NORAD ID: 39323
Int'l Code: 1994-029AFJ
Perigee: 552.6 km
Apogee: 824.8 km
Inclination: 82.0 °
Period: 98.4 minutes
Semi major axis: 7059 km
RCS: 0.0029 m2 (small)
Launch date: May 19, 1994
Source: United States (US)
Launch site: AIR FORCE WESTERN TEST RANGE (AFWTR)

Note: This is SATELLITE DEBRIS
Your satellite tracking list
Your tracking list is empty




NASA's NSSDC Master Catalog

Two Line Element Set (TLE):
1 39323U 94029AFJ 24317.39083608  .00013213  00000-0  19343-2 0  9990
2 39323  81.9910 200.0929 0192800  32.4850 328.8045 14.63612540656069
Source of the keplerian elements: AFSPC